Decorah, IA

2:34 AM CST on December 11, 2019 (GMT -0600)
Decorah Municipal

Weather History for KDEH - October, 2019

Change the Weather History Date:

Wednesday, October 2, 2019

  Actual Average Record
Temperature  
Mean Temperature 54 °F -  
Max Temperature 57 °F 70 °F 90 °F (1953)
Min Temperature 51 °F 44 °F 22 °F (1974)
Degree Days  
Heating Degree Days 11    
Growing Degree Days 4 (Base 50)    
Moisture  
Dew Point 54 °F    
Average Humidity 99    
Maximum Humidity 100    
Minimum Humidity 94    
Precipitation  
Precipitation 0.50 in - - ()
Sea Level Pressure  
Sea Level Pressure 29.94 in    
Wind  
Wind Speed 8 mph ()    
Max Wind Speed 14 mph    
Max Gust Speed 22 mph    
Visibility 5.0 miles    
Events Rain    
Averages and records for this station are not official NWS values.
T = Trace of Precipitation, MM = Missing Value Source: Averaged Metar Reports

Daily Weather History Graph

Daily Weather History Graph

Search for Another Location

Airport or City:

Astronomy

Oct. 02, 2019 Rise Set
Actual Time 7:05 AM CDT 6:46 PM CDT
Civil Twilight 6:36 AM CDT 7:15 PM CDT
Nautical Twilight 6:03 AM CDT 7:48 PM CDT
Astronomical Twilight 5:30 AM CDT 8:21 PM CDT
Moon 11:38 AM CDT (10/2) 9:33 PM CDT (10/2)
Length of Visible Light 12h 38m
Length of Day
11h 41m
Waxing Crescent, 20% of the Moon is Illuminated
Oct 2
Waxing Crescent
Oct 5
First Quarter
Oct 13
Full
Oct 21
Last Quarter
Oct 27
New

Hourly Weather History & Observations

Time (CDT) Temp. Dew Point Humidity Pressure Visibility Wind Dir Wind Speed Gust Speed Precip Events Conditions
12:15 AM 57.2 °F 57.2 °F 100% 29.87 in 5.0 mi NNE 5.8 mph 12.7 mph N/A Rain Light Rain
12:35 AM 55.4 °F 55.4 °F 100% 29.87 in 7.0 mi NNE 8.1 mph - N/A Rain Light Rain
12:55 AM 55.4 °F 55.4 °F 100% 29.86 in 7.0 mi Variable 5.8 mph 13.8 mph 0.05 in Rain Light Rain
1:15 AM 55.4 °F 55.4 °F 100% 29.88 in 6.0 mi NNW 8.1 mph - N/A Rain Light Rain
1:35 AM 55.4 °F 55.4 °F 100% 29.87 in 4.0 mi North 9.2 mph - N/A Rain Rain
1:55 AM 55.4 °F 55.4 °F 100% 29.88 in 8.0 mi North 12.7 mph - 0.04 in Rain Light Rain
2:15 AM 55.4 °F 55.4 °F 100% 29.87 in 9.0 mi North 13.8 mph 20.7 mph N/A   Light Drizzle
2:35 AM 55.4 °F 55.4 °F 100% 29.88 in 2.5 mi North 9.2 mph 15.0 mph N/A   Overcast
2:55 AM 55.4 °F 55.4 °F 100% 29.88 in 2.5 mi NNE 11.5 mph - 0.01 in   Overcast
3:15 AM 55.4 °F 55.4 °F 100% 29.87 in 3.0 mi North 11.5 mph 17.3 mph N/A   Overcast
3:55 AM 55.4 °F 55.4 °F 100% 29.87 in 4.0 mi NNE 10.4 mph - N/A   Overcast
4:15 AM 55.4 °F 55.4 °F 100% 29.89 in 3.0 mi NNE 11.5 mph - N/A   Overcast
4:35 AM 55.4 °F 55.4 °F 100% 29.90 in 1.2 mi NNE 6.9 mph 16.1 mph N/A   Overcast
4:55 AM 55.4 °F 55.4 °F 100% 29.90 in 1.5 mi NNE 9.2 mph 18.4 mph N/A   Overcast
5:15 AM 55.4 °F 55.4 °F 100% 29.90 in 2.0 mi NNE 9.2 mph 17.3 mph N/A   Overcast
5:35 AM 55.4 °F 55.4 °F 100% 29.92 in 1.8 mi NNE 8.1 mph - N/A   Overcast
5:55 AM 55.4 °F 55.4 °F 100% 29.93 in 1.5 mi NNE 10.4 mph 18.4 mph 0.01 in   Overcast
6:15 AM 55.4 °F 55.4 °F 100% 29.94 in 1.5 mi NNE 12.7 mph - N/A   Overcast
6:35 AM 55.4 °F 55.4 °F 100% 29.94 in 2.0 mi NE 10.4 mph 21.9 mph N/A   Overcast
6:55 AM 53.6 °F 53.6 °F 100% 29.95 in 2.0 mi NE 8.1 mph 15.0 mph 0.01 in   Overcast
7:15 AM 53.6 °F 53.6 °F 100% 29.96 in 7.0 mi NE 8.1 mph 13.8 mph N/A   Overcast
7:35 AM 53.6 °F 53.6 °F 100% 29.96 in 3.0 mi NE 9.2 mph 19.6 mph N/A   Overcast
7:55 AM 53.6 °F 53.6 °F 100% 29.96 in 9.0 mi NE 11.5 mph 18.4 mph N/A   Mostly Cloudy
8:15 AM 53.6 °F 53.6 °F 100% 29.98 in 10.0 mi NE 9.2 mph 16.1 mph N/A   Overcast
8:35 AM 53.6 °F 53.6 °F 100% 29.99 in - ENE 10.4 mph - N/A   Overcast
8:55 AM 53.6 °F 53.6 °F 100% 29.98 in 10.0 mi East 9.2 mph 20.7 mph N/A   Overcast
9:15 AM 53.6 °F 53.6 °F 100% 30.00 in 2.5 mi ENE 9.2 mph - N/A   Overcast
9:35 AM 53.6 °F 53.6 °F 100% 30.01 in 2.5 mi NE 10.4 mph - N/A   Mostly Cloudy
9:55 AM 51.8 °F 51.8 °F 100% 30.02 in 5.0 mi ENE 10.4 mph - N/A   Mostly Cloudy
10:15 AM 51.8 °F 51.8 °F 100% 30.00 in 7.0 mi ENE 9.2 mph - N/A   Overcast
10:35 AM 53.6 °F 53.6 °F 100% 29.99 in 10.0 mi ENE 12.7 mph - N/A   Mostly Cloudy
10:55 AM 51.8 °F 51.8 °F 100% 29.98 in 8.0 mi ENE 11.5 mph 17.3 mph N/A   Overcast
11:15 AM 51.8 °F 51.8 °F 100% 29.99 in 10.0 mi ENE 11.5 mph - N/A   Mostly Cloudy
11:35 AM 53.6 °F 51.8 °F 94% 29.99 in 10.0 mi ENE 10.4 mph 16.1 mph N/A   Mostly Cloudy
11:55 AM 53.6 °F 51.8 °F 94% 29.99 in 10.0 mi East 11.5 mph - N/A   Overcast
12:15 PM 53.6 °F 51.8 °F 94% 30.00 in 10.0 mi ENE 10.4 mph 16.1 mph N/A   Unknown
12:35 PM 53.6 °F 51.8 °F 94% 30.00 in 10.0 mi East 12.7 mph - N/A   Overcast
12:55 PM 53.6 °F 51.8 °F 94% 30.00 in 10.0 mi East 9.2 mph - N/A   Overcast
1:15 PM 53.6 °F 51.8 °F 94% 29.99 in 10.0 mi East 13.8 mph - N/A   Overcast
1:35 PM 53.6 °F 51.8 °F 94% 29.99 in 10.0 mi East 8.1 mph 18.4 mph N/A   Overcast
1:55 PM 53.6 °F 53.6 °F 100% 29.99 in 9.0 mi ESE 8.1 mph - N/A   Overcast
2:15 PM 53.6 °F 53.6 °F 100% 29.98 in 2.5 mi East 12.7 mph - N/A Rain Light Rain
2:35 PM 53.6 °F 53.6 °F 100% 29.96 in 2.0 mi East 9.2 mph - N/A Rain Light Rain
2:55 PM 53.6 °F 53.6 °F 100% 29.96 in 3.0 mi East 10.4 mph - 0.08 in Rain Light Rain
3:15 PM 53.6 °F 53.6 °F 100% 29.95 in 4.0 mi East 10.4 mph - N/A Rain Light Rain
3:35 PM 53.6 °F 53.6 °F 100% 29.95 in 4.0 mi East 9.2 mph 16.1 mph N/A Rain Light Rain
3:55 PM 53.6 °F 53.6 °F 100% 29.95 in 6.0 mi ESE 6.9 mph - 0.11 in Rain Light Rain
4:35 PM 53.6 °F 53.6 °F 100% 29.96 in 2.5 mi ENE 4.6 mph - N/A Rain Light Rain
4:55 PM 53.6 °F 53.6 °F 100% 29.95 in 2.5 mi NE 5.8 mph - 0.07 in Rain Light Rain
5:15 PM 53.6 °F 53.6 °F 100% 29.96 in 5.0 mi Variable 4.6 mph - N/A Rain Light Rain
5:35 PM 53.6 °F 53.6 °F 100% 29.96 in 2.0 mi NNE 4.6 mph - N/A Rain Light Rain
5:55 PM 53.6 °F 53.6 °F 100% 29.97 in 2.0 mi NNE 5.8 mph - 0.05 in Rain Light Rain
6:15 PM 53.6 °F 53.6 °F 100% 29.96 in 1.8 mi ENE 5.8 mph - N/A Rain Light Rain
6:35 PM 53.6 °F 53.6 °F 100% 29.95 in 3.0 mi East 9.2 mph - N/A   Overcast
6:55 PM 53.6 °F 53.6 °F 100% 29.95 in 4.0 mi Variable 6.9 mph - 0.03 in   Overcast
7:15 PM 53.6 °F 53.6 °F 100% 29.94 in 9.0 mi East 8.1 mph - N/A   Overcast
7:35 PM 53.6 °F 53.6 °F 100% 29.94 in 7.0 mi East 10.4 mph 17.3 mph N/A   Overcast
7:55 PM 53.6 °F 53.6 °F 100% 29.94 in 8.0 mi East 11.5 mph 17.3 mph 0.01 in   Overcast
8:15 PM 53.6 °F 53.6 °F 100% 29.94 in 5.0 mi East 10.4 mph 17.3 mph N/A Rain Light Rain
8:35 PM 53.6 °F 53.6 °F 100% 29.94 in 4.0 mi East 10.4 mph - N/A   Overcast
8:55 PM 53.6 °F 53.6 °F 100% 29.94 in 3.0 mi East 9.2 mph - 0.02 in   Light Drizzle
9:15 PM 53.6 °F 53.6 °F 100% 29.94 in 5.0 mi East 8.1 mph - N/A   Overcast
9:35 PM 53.6 °F 53.6 °F 100% 29.92 in 4.0 mi East 9.2 mph 17.3 mph N/A   Overcast
9:55 PM 51.8 °F 51.8 °F 100% 29.92 in 4.0 mi East 10.4 mph 16.1 mph N/A   Overcast
10:15 PM 51.8 °F 51.8 °F 100% 29.92 in 3.0 mi East 8.1 mph 16.1 mph N/A   Overcast
10:35 PM 51.8 °F 51.8 °F 100% 29.92 in 2.0 mi East 9.2 mph - N/A   Overcast
10:55 PM 51.8 °F 51.8 °F 100% 29.93 in - East 6.9 mph - 0.01 in   Overcast
11:15 PM 51.8 °F 51.8 °F 100% 29.93 in 1.5 mi East 5.8 mph - N/A   Overcast
11:35 PM 51.8 °F 51.8 °F 100% 29.94 in 1.2 mi ENE 4.6 mph - N/A   Overcast
11:55 PM 51.8 °F 51.8 °F 100% 29.95 in 1.5 mi Calm Calm - N/A   Overcast